When you browse on this site, cookies collect data to enhance your experience and personalize the content and advertising you see.
Visit our Privacy Policy to learn more. By continuing to use the site, you agree to this use of cookies and data.
  • In Romania
  • List of Countries
  • For 7 days
  • Water Temperature
  • Weather Map
  • Weather Widgets
  • user-avatar
    Login

    Hourly Weather Bals

    Today, 19 September, Thursday

    Time Temperature Precipitation Wind Pressure Humidity
    00:00 +16°C° 0 mm 3 mps 751 mmHg 38%
    01:00 +14°C° 0 mm 3 mps 752 mmHg 39%
    02:00 +13°C° 0 mm 3 mps 752 mmHg 40%
    03:00 +13°C° 0 mm 4 mps 752 mmHg 41%
    04:00 +13°C° 0 mm 5 mps 752 mmHg 42%
    05:00 +12°C° 0 mm 5 mps 752 mmHg 43%
    06:00 +13°C° 0 mm 5 mps 752 mmHg 43%
    07:00 +13°C° 0 mm 5 mps 752 mmHg 43%
    08:00 +13°C° 0 mm 5 mps 752 mmHg 44%
    09:00 +15°C° 0 mm 4 mps 752 mmHg 40%
    10:00 +17°C° 0 mm 3 mps 752 mmHg 37%
    11:00 +19°C° 0 mm 2 mps 752 mmHg 34%
    12:00 +19°C° 0 mm 2 mps 752 mmHg 32%
    13:00 +20°C° 0 mm 2 mps 751 mmHg 30%
    14:00 +21°C° 0 mm 2 mps 751 mmHg 29%
    15:00 +20°C° 0 mm 4 mps 751 mmHg 30%
    16:00 +19°C° 0 mm 5 mps 751 mmHg 32%
    17:00 +17°C° 0 mm 6 mps 751 mmHg 34%
    18:00 +15°C° 0 mm 6 mps 751 mmHg 43%
    19:00 +14°C° 0 mm 6 mps 751 mmHg 53%
    20:00 +11°C° 0 mm 6 mps 751 mmHg 62%
    21:00 +10°C° 0 mm 5 mps 752 mmHg 66%
    22:00 +11°C° 0 mm 4 mps 752 mmHg 69%
    23:00 +10°C° 0 mm 3 mps 752 mmHg 73%

    Tomorrow, 20 September, Friday

    Time Temperature Precipitation Wind Pressure Humidity
    00:00 +9°C° 0 mm 3 mps 752 mmHg 72%
    01:00 +9°C° 0 mm 3 mps 752 mmHg 71%
    02:00 +8°C° 0 mm 3 mps 752 mmHg 70%
    03:00 +8°C° 0 mm 3 mps 752 mmHg 68%
    04:00 +7°C° 0 mm 3 mps 752 mmHg 65%
    05:00 +7°C° 0 mm 3 mps 752 mmHg 63%
    06:00 +9°C° 0 mm 3 mps 752 mmHg 55%
    07:00 +10°C° 0 mm 3 mps 752 mmHg 48%
    08:00 +12°C° 0 mm 3 mps 752 mmHg 41%
    09:00 +14°C° 0 mm 3 mps 753 mmHg 37%
    10:00 +17°C° 0 mm 3 mps 753 mmHg 33%
    11:00 +19°C° 0 mm 2 mps 753 mmHg 29%
    12:00 +20°C° 0 mm 2 mps 752 mmHg 26%
    13:00 +21°C° 0 mm 2 mps 752 mmHg 23%
    14:00 +23°C° 0 mm 2 mps 752 mmHg 19%
    15:00 +23°C° 0 mm 2 mps 752 mmHg 18%
    16:00 +23°C° 0 mm 2 mps 752 mmHg 17%
    17:00 +22°C° 0 mm 3 mps 752 mmHg 16%
    18:00 +19°C° 0 mm 3 mps 752 mmHg 20%
    19:00 +16°C° 0 mm 3 mps 753 mmHg 24%
    20:00 +13°C° 0 mm 3 mps 753 mmHg 28%
    21:00 +12°C° 0 mm 3 mps 753 mmHg 30%
    22:00 +11°C° 0 mm 3 mps 754 mmHg 31%
    23:00 +10°C° 0 mm 3 mps 754 mmHg 32%

    Day after tomorrow, 21 September, Saturday

    Time Temperature Precipitation Wind Pressure Humidity
    00:00 +10°C° 0 mm 3 mps 754 mmHg 36%
    01:00 +8°C° 0 mm 4 mps 754 mmHg 40%
    02:00 +8°C° 0 mm 4 mps 755 mmHg 43%
    03:00 +7°C° 0 mm 4 mps 755 mmHg 48%
    04:00 +8°C° 0 mm 3 mps 755 mmHg 53%
    05:00 +7°C° 0 mm 3 mps 755 mmHg 58%
    06:00 +7°C° 0 mm 4 mps 755 mmHg 54%
    07:00 +10°C° 0 mm 4 mps 755 mmHg 49%
    08:00 +11°C° 0 mm 4 mps 756 mmHg 44%
    09:00 +13°C° 0 mm 4 mps 756 mmHg 39%
    10:00 +15°C° 0 mm 4 mps 756 mmHg 34%
    11:00 +18°C° 0 mm 4 mps 756 mmHg 29%
    12:00 +19°C° 0 mm 3 mps 755 mmHg 27%
    13:00 +20°C° 0 mm 3 mps 754 mmHg 24%
    14:00 +21°C° 0 mm 2 mps 754 mmHg 22%
    15:00 +21°C° 0 mm 2 mps 754 mmHg 21%
    16:00 +22°C° 0 mm 1 mps 753 mmHg 21%
    17:00 +22°C° 0 mm 1 mps 753 mmHg 20%
    18:00 +20°C° 0 mm 1 mps 753 mmHg 24%
    19:00 +18°C° 0 mm 1 mps 753 mmHg 28%
    20:00 +14°C° 0 mm 1 mps 754 mmHg 32%
    21:00 +14°C° 0 mm 2 mps 754 mmHg 33%
    22:00 +13°C° 0 mm 2 mps 754 mmHg 35%
    23:00 +12°C° 0 mm 2 mps 754 mmHg 36%

    22 September, Sunday

    Time Temperature Precipitation Wind Pressure Humidity
    00:00 +12°C° 0 mm 2 mps 753 mmHg 38%
    01:00 +10°C° 0 mm 2 mps 753 mmHg 40%
    02:00 +10°C° 0 mm 2 mps 753 mmHg 41%
    03:00 +9°C° 0 mm 2 mps 753 mmHg 43%
    04:00 +9°C° 0 mm 2 mps 753 mmHg 44%
    05:00 +8°C° 0 mm 2 mps 752 mmHg 46%
    06:00 +10°C° 0 mm 2 mps 752 mmHg 43%
    07:00 +12°C° 0 mm 2 mps 752 mmHg 39%
    08:00 +14°C° 0 mm 1 mps 752 mmHg 36%
    09:00 +16°C° 0 mm 1 mps 752 mmHg 31%
    10:00 +19°C° 0 mm 2 mps 752 mmHg 26%
    11:00 +21°C° 0 mm 2 mps 752 mmHg 21%
    12:00 +24°C° 0 mm 2 mps 751 mmHg 20%
    13:00 +25°C° 0 mm 2 mps 751 mmHg 18%
    14:00 +26°C° 0 mm 1 mps 750 mmHg 16%
    15:00 +26°C° 0 mm 1 mps 750 mmHg 16%
    16:00 +26°C° 0 mm 1 mps 749 mmHg 16%
    17:00 +26°C° 0 mm 1 mps 749 mmHg 16%
    18:00 +23°C° 0 mm 1 mps 749 mmHg 20%
    19:00 +21°C° 0 mm 1 mps 749 mmHg 23%
    20:00 +18°C° 0 mm 1 mps 749 mmHg 27%
    21:00 +16°C° 0 mm 1 mps 749 mmHg 28%
    22:00 +16°C° 0 mm 2 mps 749 mmHg 29%
    23:00 +15°C° 0 mm 2 mps 749 mmHg 30%

    23 September, Monday

    Time Temperature Precipitation Wind Pressure Humidity
    00:00 +15°C° 0 mm 2 mps 749 mmHg 32%
    01:00 +14°C° 0 mm 2 mps 749 mmHg 33%
    02:00 +12°C° 0 mm 3 mps 749 mmHg 35%
    03:00 +12°C° 0 mm 3 mps 749 mmHg 36%
    04:00 +12°C° 0 mm 3 mps 748 mmHg 37%
    05:00 +12°C° 0 mm 3 mps 748 mmHg 38%
    06:00 +13°C° 0 mm 3 mps 748 mmHg 37%
    07:00 +14°C° 0 mm 3 mps 748 mmHg 37%
    08:00 +15°C° 0 mm 4 mps 748 mmHg 37%
    09:00 +18°C° 0 mm 3 mps 748 mmHg 34%
    10:00 +20°C° 0 mm 3 mps 747 mmHg 31%
    11:00 +23°C° 0 mm 2 mps 747 mmHg 28%
    12:00 +24°C° 0 mm 2 mps 747 mmHg 27%
    13:00 +25°C° 0 mm 2 mps 746 mmHg 26%
    14:00 +26°C° 0 mm 3 mps 746 mmHg 25%
    15:00 +24°C° 0 mm 2 mps 746 mmHg 29%
    16:00 +23°C° 0 mm 2 mps 745 mmHg 32%
    17:00 +21°C° 0 mm 2 mps 745 mmHg 36%
    18:00 +19°C° 0 mm 2 mps 745 mmHg 41%
    19:00 +18°C° 0 mm 2 mps 745 mmHg 45%
    20:00 +16°C° 0 mm 2 mps 744 mmHg 50%
    21:00 +16°C° 0.2 mm 2 mps 744 mmHg 52%
    22:00 +16°C° 0.2 mm 1 mps 744 mmHg 53%
    23:00 +16°C° 0.2 mm 1 mps 744 mmHg 55%

    24 September, Tuesday

    Time Temperature Precipitation Wind Pressure Humidity
    00:00 +15°C° 0.3 mm 2 mps 744 mmHg 59%
    01:00 +14°C° 0.3 mm 2 mps 744 mmHg 64%
    02:00 +13°C° 0.3 mm 3 mps 744 mmHg 68%
    03:00 +13°C° 0 mm 3 mps 744 mmHg 71%
    04:00 +13°C° 0 mm 4 mps 744 mmHg 73%
    05:00 +13°C° 0 mm 4 mps 744 mmHg 76%
    06:00 +14°C° 0 mm 5 mps 744 mmHg 75%
    07:00 +16°C° 0 mm 6 mps 744 mmHg 74%
    08:00 +17°C° 0 mm 7 mps 744 mmHg 73%
    09:00 +20°C° 0 mm 7 mps 744 mmHg 65%
    10:00 +22°C° 0 mm 7 mps 744 mmHg 57%
    11:00 +23°C° 0 mm 8 mps 745 mmHg 49%
    12:00 +24°C° 0 mm 8 mps 744 mmHg 42%
    13:00 +26°C° 0 mm 8 mps 744 mmHg 36%
    14:00 +27°C° 0 mm 8 mps 744 mmHg 30%
    15:00 +27°C° 0 mm 8 mps 744 mmHg 30%
    16:00 +26°C° 0 mm 8 mps 744 mmHg 30%
    17:00 +24°C° 0 mm 8 mps 744 mmHg 30%
    18:00 +23°C° 0 mm 7 mps 744 mmHg 35%
    19:00 +21°C° 0 mm 6 mps 745 mmHg 41%
    20:00 +19°C° 0 mm 6 mps 745 mmHg 46%
    21:00 +17°C° 0 mm 5 mps 746 mmHg 49%
    22:00 +17°C° 0 mm 4 mps 746 mmHg 51%
    23:00 +16°C° 0 mm 3 mps 746 mmHg 54%
    Show more